FW0824 Weather Reports


time (UTC)temp
C
wind
direction
speed
KPH
gust
KPH
rain 1hr
cm
rain 24hr
cm
rain mn
cm
humidity
%
barometer
mb
20260906191202 26 202 6.4 16.1 0.00 0.00 0.00 73 1019.6
20260906190702 26 167 6.4 14.5 0.00 0.00 0.00 73 1019.7
20260906190203 26 187 8.0 22.5 0.00 0.00 0.00 73 1019.6
20260906185702 26 155 8.0 22.5 0.00 0.00 0.00 73 1019.5
20260906185202 26 146 4.8 17.7 0.00 0.00 0.00 73 1019.5
20260906184201 26 143 6.4 16.1 0.00 0.00 0.00 73 1019.5
20260906183702 26 92 6.4 16.1 0.00 0.00 0.00 74 1019.4
20260906183202 26 178 4.8 12.9 0.00 0.00 0.00 74 1019.5
20260906182701 26 133 4.8 12.9 0.00 0.00 0.00 74 1019.6
20260906182201 26 168 4.8 17.7 0.00 0.00 0.00 75 1019.6
20260906181702 25 155 4.8 17.7 0.00 0.00 0.00 75 1019.6
20260906180702 25 138 4.8 14.5 0.00 0.00 0.00 76 1019.7
20260906180201 25 126 4.8 14.5 0.00 0.00 0.00 76 1019.6
20260906175701 25 65 4.8 12.9 0.00 0.00 0.00 77 1019.7
20260906175201 25 152 4.8 12.9 0.00 0.00 0.00 78 1019.9
20260906174701 25 140 4.8 12.9 0.00 0.00 0.00 79 1019.9
20260906174203 24 146 6.4 20.9 0.00 0.00 0.00 79 1020.0
20260906173700 24 196 6.4 20.9 0.00 0.00 0.00 79 1020.1
20260906172703 23 162 6.4 16.1 0.00 0.00 0.00 80 1020.0
20260906172201 23 212 8.0 16.1 0.00 0.00 0.00 80 1020.1
20260906170701 23 144 8.0 19.3 0.00 0.00 0.00 81 1020.3
20260906170203 23 171 9.7 19.3 0.00 0.00 0.00 81 1020.1
20260906165701 23 159 9.7 22.5 0.00 0.00 0.00 81 1020.3
20260906165201 23 188 9.7 22.5 0.00 0.00 0.00 82 1020.2
20260906164702 23 250 8.0 20.9 0.00 0.00 0.00 83 1020.4
20260906164201 23 194 8.0 20.9 0.00 0.00 0.00 83 1020.4
20260906163700 23 138 6.4 19.3 0.00 0.00 0.00 83 1020.5
20260906163201 22 183 6.4 19.3 0.00 0.00 0.00 84 1020.5
20260906162702 22 157 8.0 22.5 0.00 0.00 0.00 84 1020.5
20260906162202 22 173 8.0 22.5 0.00 0.00 0.00 84 1020.6
20260906161701 22 166 8.0 17.7 0.00 0.00 0.00 84 1020.6
20260906161201 22 189 6.4 17.7 0.00 0.00 0.00 85 1020.6
20260906160702 22 195 6.4 14.5 0.00 0.00 0.00 85 1020.9
20260906160202 22 120 4.8 14.5 0.00 0.00 0.00 85 1020.9
20260906155701 22 134 4.8 17.7 0.00 0.00 0.00 85 1020.6
20260906155201 22 140 4.8 17.7 0.00 0.00 0.00 85 1020.6
20260906154700 22 192 4.8 14.5 0.00 0.00 0.00 86 1020.4
20260906153702 22 159 4.8 16.1 0.00 0.00 0.00 86 1020.5
20260906153202 22 125 4.8 16.1 0.00 0.00 0.00 86 1020.5
20260906152703 22 146 3.2 12.9 0.00 0.00 0.00 86 1020.7
20260906152201 22 144 4.8 14.5 0.00 0.00 0.00 86 1020.7
20260906151701 22 140 4.8 14.5 0.00 0.00 0.00 86 1021.1
20260906151202 22 193 3.2 14.5 0.00 0.00 0.00 86 1021.1
20260906150701 22 167 3.2 12.9 0.00 0.00 0.00 86 1020.9
20260906145703 22 166 4.8 14.5 0.00 0.00 0.00 86 1020.6
20260906145201 22 148 4.8 14.5 0.00 0.00 0.00 86 1020.6
20260906144701 22 117 8.0 19.3 0.00 0.00 0.00 86 1020.7
20260906144202 22 132 8.0 19.3 0.00 0.00 0.00 86 1020.6
20260906143701 22 153 6.4 19.3 0.00 0.00 0.00 86 1020.6
20260906142703 22 172 8.0 27.4 0.00 0.00 0.00 85 1020.4
20260906141201 22 115 4.8 14.5 0.00 0.00 0.00 87 1020.5
20260906140701 22 145 4.8 14.5 0.00 0.00 0.00 87 1020.4
20260906140201 22 147 4.8 12.9 0.00 0.00 0.00 87 1020.5
20260906135701 22 158 4.8 12.9 0.00 0.00 0.00 87 1020.6
20260906135202 22 144 4.8 12.9 0.00 0.00 0.00 87 1020.5
20260906134701 22 158 4.8 12.9 0.00 0.00 0.00 88 1020.5
20260906134200 22 117 4.8 14.5 0.00 0.00 0.00 88 1020.4
20260906133700 22 136 4.8 14.5 0.00 0.00 0.00 88 1020.3
20260906132701 21 153 4.8 12.9 0.00 0.00 0.00 89 1020.3
20260906132203 21 161 3.2 9.7 0.00 0.00 0.00 89 1020.1
20260906131200 21 152 3.2 8.0 0.00 0.00 0.00 89 1020.2
20260906130702 21 151 3.2 12.9 0.00 0.00 0.00 90 1020.2
20260906125701 21 155 3.2 16.1 0.00 0.00 0.00 90 1020.1
20260906125201 21 142 3.2 16.1 0.00 0.00 0.00 90 1020.1
20260906124700 21 145 3.2 8.0 0.00 0.00 0.00 90 1020.1
20260906124202 21 146 3.2 8.0 0.00 0.00 0.00 91 1020.2
20260906123701 21 139 1.6 6.4 0.00 0.00 0.00 91 1020.0
20260906123203 21 140 1.6 6.4 0.00 0.00 0.00 91 1019.9
20260906122701 21 140 3.2 11.3 0.00 0.00 0.00 91 1020.1
20260906122202 20 139 3.2 11.3 0.00 0.00 0.00 91 1020.0
20260906121201 20 157 1.6 9.7 0.00 0.00 0.00 91 1020.1
20260906120702 20 160 1.6 9.7 0.00 0.00 0.00 91 1020.0
20260906120204 20 142 1.6 8.0 0.00 0.00 0.00 91 1019.9
20260906115702 20 142 1.6 8.0 0.00 0.00 0.00 91 1019.8
20260906115201 21 142 1.6 6.4 0.00 0.00 0.00 90 1019.8
20260906114700 21 142 1.6 6.4 0.00 0.00 0.00 90 1019.8
20260906114200 21 143 1.6 4.8 0.00 0.00 0.00 91 1019.8
20260906113700 21 144 1.6 4.8 0.00 0.00 0.00 90 1019.8
20260906113202 21 144 1.6 6.4 0.00 0.00 0.00 90 1019.7
20260906112703 21 144 1.6 6.4 0.00 0.00 0.00 90 1019.7
20260906112200 21 153 1.6 9.7 0.00 0.00 0.00 90 1019.5
20260906111702 21 153 1.6 9.7 0.00 0.00 0.00 90 1019.5
20260906111201 21 168 1.6 8.0 0.00 0.00 0.00 90 1019.4
20260906110700 21 169 1.6 8.0 0.00 0.00 0.00 90 1019.4
20260906105702 21 173 1.6 4.8 0.00 0.00 0.00 90 1019.3
20260906105201 21 173 1.6 4.8 0.00 0.00 0.00 90 1019.5
20260906104702 21 173 1.6 4.8 0.00 0.00 0.00 90 1019.5
20260906104201 21 173 1.6 6.4 0.00 0.00 0.00 90 1019.5
20260906103702 21 175 1.6 8.0 0.00 0.00 0.00 90 1019.4
20260906103201 21 159 3.2 9.7 0.00 0.00 0.00 90 1019.5
20260906102701 21 148 3.2 9.7 0.00 0.00 0.00 89 1019.4
20260906102201 21 148 3.2 9.7 0.00 0.00 0.00 89 1019.3
20260906101702 21 150 1.6 9.7 0.00 0.00 0.00 89 1019.2
20260906101202 21 172 3.2 8.0 0.00 0.00 0.00 89 1019.3
20260906100701 21 176 1.6 8.0 0.00 0.00 0.00 89 1019.3
20260906100203 21 154 1.6 9.7 0.00 0.00 0.00 89 1019.3
20260906095701 21 156 3.2 9.7 0.00 0.00 0.00 89 1019.3
20260906095202 21 150 3.2 9.7 0.00 0.00 0.00 89 1019.0
20260906094702 21 150 3.2 9.7 0.00 0.00 0.00 89 1018.8
20260906094202 21 137 3.2 12.9 0.00 0.00 0.00 89 1018.6
20260906093702 21 157 3.2 12.9 0.00 0.00 0.00 89 1018.6
20260906093202 21 150 3.2 11.3 0.00 0.00 0.00 89 1018.5
20260906092701 21 144 1.6 11.3 0.00 0.00 0.00 89 1018.5
20260906092201 21 129 0.0 6.4 0.00 0.00 0.00 89 1018.4
20260906091705 21 129 1.6 6.4 0.00 0.00 0.00 89 1018.4
20260906091202 21 138 0.0 11.3 0.00 0.00 0.00 89 1018.4
20260906090702 21 138 1.6 11.3 0.00 0.00 0.00 89 1018.5
20260906090201 22 139 1.6 11.3 0.00 0.00 0.00 89 1018.6
20260906085701 22 142 3.2 11.3 0.00 0.00 0.00 88 1018.7
20260906085201 22 146 3.2 9.7 0.00 0.00 0.00 88 1018.7
20260906084701 22 150 1.6 11.3 0.00 0.00 0.00 88 1018.6
20260906084201 22 151 3.2 11.3 0.00 0.00 0.00 88 1018.6
20260906083700 22 144 3.2 9.7 0.00 0.00 0.00 88 1018.6
20260906083154 22 157 3.2 8.0 0.00 0.00 0.00 88 1018.5
20260906082649 22 165 1.6 8.0 0.00 0.00 0.00 88 1018.5
20260906082142 22 97 1.6 6.4 0.00 0.00 0.00 88 1018.5
20260906081637 22 102 1.6 3.2 0.00 0.00 0.00 87 1018.5
20260906081130 22 102 1.6 3.2 0.00 0.00 0.00 87 1018.5
20260906080630 22 102 3.2 6.4 0.00 0.00 0.00 87 1018.5
20260906080130 22 102 1.6 9.7 0.00 0.00 0.00 87 1018.3
20260906075630 22 131 1.6 9.7 0.00 0.00 0.00 87 1018.4
20260906074630 22 126 1.6 6.4 0.00 0.00 0.00 87 1018.4
20260906074130 22 140 1.6 4.8 0.00 0.00 0.00 87 1018.4
20260906073629 22 141 1.6 4.8 0.00 0.00 0.00 87 1018.5
20260906073130 22 141 1.6 4.8 0.00 0.00 0.00 86 1018.6
20260906072630 22 140 1.6 4.8 0.00 0.00 0.00 86 1018.7
20260906072131 23 141 1.6 4.8 0.00 0.00 0.00 86 1018.6
20260906071628 23 141 1.6 4.8 0.00 0.00 0.00 86 1018.6
20260906071130 23 146 1.6 4.8 0.00 0.00 0.00 86 1018.7
20260906070629 23 146 1.6 11.3 0.00 0.00 0.00 86 1018.8
20260906070129 23 146 1.6 11.3 0.00 0.00 0.00 85 1019.0
20260906065628 23 111 1.6 9.7 0.00 0.00 0.00 85 1019.0
20260906065130 23 159 1.6 9.7 0.00 0.00 0.00 85 1019.1
20260906064126 23 156 1.6 8.0 0.00 0.00 0.00 85 1019.0
20260906063113 23 155 1.6 8.0 0.00 0.00 0.00 85 1018.9
20260906062614 23 155 1.6 8.0 0.00 0.00 0.00 85 1018.9
20260906062115 23 157 0.0 8.0 0.00 0.00 0.00 85 1019.0
20260906061612 23 157 0.0 8.0 0.00 0.00 0.00 85 1019.0
20260906061114 23 157 0.0 1.6 0.00 0.00 0.00 85 1018.9
20260906060612 23 157 0.0 1.6 0.00 0.00 0.00 85 1019.0
20260906060110 23 157 1.6 4.8 0.00 0.00 0.00 85 1018.9
20260906055610 23 157 1.6 8.0 0.00 0.00 0.00 85 1018.8
20260906054609 23 161 1.6 8.0 0.00 0.00 0.00 85 1018.7
20260906054108 23 184 1.6 4.8 0.00 0.00 0.00 85 1018.7
20260906053608 23 184 0.0 4.8 0.00 0.00 0.00 85 1018.7
20260906052604 23 185 0.0 4.8 0.00 0.00 0.00 85 1018.8
20260906052102 23 185 0.0 1.6 0.00 0.00 0.00 85 1019.0
20260906051102 23 185 0.0 4.8 0.00 0.00 0.00 85 1019.1
20260906050601 23 185 1.6 4.8 0.00 0.00 0.00 85 1019.1
20260906045601 23 187 0.0 3.2 0.00 0.00 0.00 85 1019.1
20260906044549 23 188 0.0 1.6 0.00 0.00 0.00 85 1019.0
20260906044043 23 188 0.0 0.0 0.00 0.00 0.00 84 1019.1
20260906043030 23 188 0.0 0.0 0.00 0.00 0.00 84 1019.2
20260906042530 23 188 0.0 0.0 0.00 0.00 0.00 84 1019.3
20260906042031 23 188 0.0 0.0 0.00 0.00 0.00 84 1019.4
20260906041531 23 188 0.0 3.2 0.00 0.00 0.00 84 1019.3
20260906041029 23 188 0.0 3.2 0.00 0.00 0.00 84 1019.3
20260906040529 23 188 0.0 1.6 0.00 0.00 0.00 83 1019.3
20260906040031 23 188 0.0 1.6 0.00 0.00 0.00 83 1019.3
20260906035529 23 188 0.0 1.6 0.00 0.00 0.00 83 1019.3
20260906035030 23 188 0.0 1.6 0.00 0.00 0.00 83 1019.3
20260906033529 24 188 0.0 0.0 0.00 0.00 0.00 81 1019.2
20260906033029 24 188 0.0 1.6 0.00 0.00 0.00 81 1019.2
20260906032531 24 188 0.0 1.6 0.00 0.00 0.00 81 1019.3
20260906032029 24 188 0.0 1.6 0.00 0.00 0.00 80 1019.2
20260906031531 24 188 0.0 1.6 0.00 0.00 0.00 81 1019.2
20260906031028 24 188 0.0 1.6 0.00 0.00 0.00 80 1019.1
20260906030527 24 188 0.0 3.2 0.00 0.00 0.00 80 1019.2
20260906030027 24 188 0.0 3.2 0.00 0.00 0.00 80 1019.2
20260906025526 24 188 0.0 3.2 0.00 0.00 0.00 80 1019.3
20260906025025 25 188 0.0 3.2 0.00 0.00 0.00 80 1019.3
20260906024024 25 188 1.6 3.2 0.00 0.00 0.00 80 1019.4
20260906023024 25 188 1.6 8.0 0.00 0.00 0.00 79 1019.4
20260906022020 25 184 3.2 6.4 0.00 0.00 0.00 79 1019.0
20260906021019 25 181 3.2 8.0 0.00 0.00 0.00 79 1018.7
20260906020020 25 144 3.2 11.3 0.00 0.00 0.00 78 1018.5
20260906015520 25 146 4.8 16.1 0.00 0.00 0.00 78 1018.4
20260906015019 25 153 6.4 19.3 0.00 0.00 0.00 78 1018.2
20260906014021 25 137 4.8 14.5 0.00 0.00 0.00 77 1018.0
20260906013517 25 157 4.8 16.1 0.00 0.00 0.00 77 1017.7
20260906013016 25 134 6.4 16.1 0.00 0.00 0.00 76 1017.6
20260906012516 26 140 6.4 14.5 0.00 0.00 0.00 76 1017.5
20260906011515 26 148 9.7 22.5 0.00 0.00 0.00 75 1017.1
20260906011015 26 144 8.0 22.5 0.00 0.00 0.00 75 1017.1
20260906010016 26 147 6.4 16.1 0.00 0.00 0.00 73 1016.9
20260906004516 27 218 3.2 11.3 0.00 0.00 0.00 69 1016.9
20260906004016 27 196 4.8 11.3 0.00 0.00 0.00 68 1016.6
20260906003513 27 188 4.8 11.3 0.00 0.00 0.00 67 1016.5
20260906002010 28 137 4.8 11.3 0.00 0.00 0.00 66 1016.3
20260906001509 28 94 3.2 8.0 0.00 0.00 0.00 66 1016.4
20260906000011 28 98 1.6 6.4 0.00 0.00 0.00 65 1016.4
20260905235509 28 97 3.2 12.9 0.00 0.00 0.00 64 1016.4
20260905234504 28 93 4.8 16.1 0.00 0.00 0.00 64 1016.2
20260905234002 28 91 3.2 16.1 0.00 0.00 0.00 64 1016.2
20260905232500 28 86 6.4 14.5 0.00 0.00 0.00 63 1016.0
20260905232001 28 71 6.4 14.5 0.00 0.00 0.00 63 1016.0
20260905231001 29 123 8.0 19.3 0.00 0.00 0.00 63 1016.1
20260905230501 29 63 8.0 19.3 0.00 0.00 0.00 62 1015.9
20260905230004 29 98 8.0 17.7 0.00 0.00 0.00 62 1015.9
20260905225501 29 89 4.8 17.7 0.00 0.00 0.00 62 1015.8
20260905225001 30 102 4.8 16.1 0.00 0.00 0.00 63 1015.7
20260905224501 29 94 4.8 16.1 0.00 0.00 0.00 62 1015.7
20260905224001 30 55 4.8 16.1 0.00 0.00 0.00 61 1015.7
20260905223502 30 139 6.4 16.1 0.00 0.00 0.00 61 1015.7
20260905223002 30 57 6.4 19.3 0.00 0.00 0.00 60 1015.8
20260905222001 30 92 3.2 14.5 0.00 0.00 0.00 59 1016.0
20260905221503 29 80 4.8 12.9 0.00 0.00 0.00 59 1016.0
20260905221002 29 135 4.8 12.9 0.00 0.00 0.00 60 1015.9
20260905220503 29 83 6.4 17.7 0.00 0.00 0.00 60 1015.9
20260905220003 29 88 8.0 17.7 0.00 0.00 0.00 61 1015.9
20260905215502 29 89 6.4 17.7 0.00 0.00 0.00 60 1016.1
20260905215001 30 96 6.4 17.7 0.00 0.00 0.00 61 1016.0
20260905214503 30 98 4.8 17.7 0.00 0.00 0.00 61 1016.1
20260905213500 29 63 6.4 14.5 0.00 0.00 0.00 62 1016.2
20260905213003 29 87 6.4 14.5 0.00 0.00 0.00 63 1016.2
20260905212502 29 76 6.4 19.3 0.00 0.00 0.00 63 1016.1
20260905212002 29 80 6.4 19.3 0.00 0.00 0.00 64 1016.1
20260905211002 29 9 8.0 20.9 0.00 0.00 0.00 66 1016.1
20260905210502 28 157 9.7 22.5 0.00 0.00 0.00 66 1016.0
20260905210000 28 32 11.3 22.5 0.00 0.00 0.00 66 1016.0
20260905205501 28 56 9.7 22.5 0.00 0.00 0.00 66 1016.2
20260905205002 28 96 9.7 19.3 0.00 0.00 0.00 67 1016.5
20260905204502 28 83 9.7 19.3 0.00 0.00 0.00 66 1016.8
20260905204003 28 59 4.8 16.1 0.00 0.00 0.00 66 1017.1
20260905203502 28 140 3.2 9.7 0.00 0.00 0.00 68 1017.2
20260905203003 28 92 3.2 16.1 0.00 0.00 0.00 68 1017.3
20260905202503 28 144 3.2 16.1 0.00 0.00 0.00 68 1017.4
20260905202002 28 160 3.2 9.7 0.00 0.00 0.00 69 1017.5
20260905200501 27 116 3.2 9.7 0.00 0.00 0.00 71 1017.7
20260905200001 27 118 3.2 11.3 0.00 0.00 0.00 70 1017.9
20260905195502 27 67 3.2 11.3 0.00 0.00 0.00 70 1018.1
20260905195003 27 133 1.6 6.4 0.00 0.00 0.00 70 1018.1
20260905194502 27 109 3.2 6.4 0.00 0.00 0.00 70 1018.2
20260905194003 27 109 3.2 11.3 0.00 0.00 0.00 69 1018.3
20260905193501 27 72 4.8 11.3 0.00 0.00 0.00 69 1018.3
20260905193001 27 151 3.2 11.3 0.00 0.00 0.00 70 1018.4
20260905192502 27 142 1.6 11.3 0.00 0.00 0.00 72 1018.5
20260905191956 27 180 1.6 8.0 0.00 0.00 0.00 72 1018.5